• en France
  • Liste des pays
  • À 7 jours
  • Température de l'eau
  • Carte satellitaire
  • Carte météo
  • Widgets météo
  • user-avatar
    Se connecter

    Météo par heure à Shamilkala

    Ce jour, 15 Octobre, Lundi

    Heure Température Précipitation Vent Pression Humidité
    00:00 +12°C° 0 mm 2 m/s 714 mmHg 46%
    01:00 +12°C° 0 mm 2 m/s 714 mmHg 45%
    02:00 +12°C° 0 mm 2 m/s 714 mmHg 44%
    03:00 +12°C° 0 mm 2 m/s 714 mmHg 41%
    04:00 +12°C° 0 mm 2 m/s 714 mmHg 42%
    05:00 +10°C° 0 mm 2 m/s 714 mmHg 42%
    06:00 +10°C° 0 mm 2 m/s 714 mmHg 43%
    07:00 +13°C° 0 mm 2 m/s 714 mmHg 40%
    08:00 +15°C° 0 mm 2 m/s 715 mmHg 37%
    09:00 +17°C° 0 mm 2 m/s 715 mmHg 35%
    10:00 +17°C° 0 mm 3 m/s 715 mmHg 35%
    11:00 +18°C° 0 mm 3 m/s 715 mmHg 35%
    12:00 +18°C° 0 mm 3 m/s 716 mmHg 36%
    13:00 +18°C° 0 mm 3 m/s 716 mmHg 39%
    14:00 +17°C° 0 mm 3 m/s 716 mmHg 43%
    15:00 +17°C° 0 mm 2 m/s 716 mmHg 48%
    16:00 +16°C° 0 mm 1 m/s 716 mmHg 52%
    17:00 +15°C° 0 mm 1 m/s 716 mmHg 56%
    18:00 +14°C° 0 mm 1 m/s 716 mmHg 61%
    19:00 +14°C° 0 mm 1 m/s 716 mmHg 60%
    20:00 +14°C° 0 mm 1 m/s 716 mmHg 60%
    21:00 +13°C° 0 mm 1 m/s 716 mmHg 59%
    22:00 +13°C° 0 mm 1 m/s 716 mmHg 59%
    23:00 +13°C° 0 mm 1 m/s 716 mmHg 59%

    Demain, 16 Octobre, Mardi

    Heure Température Précipitation Vent Pression Humidité
    00:00 +13°C° 0 mm 1 m/s 716 mmHg 59%
    01:00 +13°C° 0 mm 1 m/s 716 mmHg 60%
    02:00 +13°C° 0 mm 1 m/s 716 mmHg 62%
    03:00 +13°C° 0 mm 1 m/s 716 mmHg 63%
    04:00 +13°C° 0 mm 1 m/s 716 mmHg 64%
    05:00 +12°C° 0 mm 1 m/s 716 mmHg 65%
    06:00 +12°C° 0 mm 1 m/s 716 mmHg 66%
    07:00 +14°C° 0 mm 1 m/s 717 mmHg 61%
    08:00 +16°C° 0 mm 1 m/s 717 mmHg 56%
    09:00 +19°C° 0 mm 1 m/s 717 mmHg 51%
    10:00 +19°C° 0 mm 2 m/s 717 mmHg 51%
    11:00 +19°C° 0 mm 2 m/s 717 mmHg 50%
    12:00 +20°C° 0 mm 2 m/s 717 mmHg 50%
    13:00 +20°C° 0 mm 3 m/s 717 mmHg 51%
    14:00 +20°C° 0 mm 3 m/s 717 mmHg 53%
    15:00 +20°C° 0 mm 3 m/s 717 mmHg 54%
    16:00 +18°C° 0 mm 2 m/s 717 mmHg 63%
    17:00 +17°C° 0 mm 2 m/s 717 mmHg 72%
    18:00 +15°C° 0 mm 1 m/s 716 mmHg 81%
    19:00 +15°C° 0 mm 1 m/s 716 mmHg 82%
    20:00 +14°C° 0 mm 1 m/s 717 mmHg 82%
    21:00 +14°C° 0 mm 1 m/s 717 mmHg 82%
    22:00 +14°C° 0 mm 1 m/s 717 mmHg 81%
    23:00 +14°C° 0 mm 2 m/s 716 mmHg 80%

    Après-demain, 17 Octobre, Mercredi

    Heure Température Précipitation Vent Pression Humidité
    00:00 +14°C° 0 mm 2 m/s 716 mmHg 79%
    01:00 +14°C° 0 mm 2 m/s 716 mmHg 78%
    02:00 +13°C° 0 mm 2 m/s 716 mmHg 78%
    03:00 +13°C° 0 mm 2 m/s 716 mmHg 77%
    04:00 +13°C° 0 mm 2 m/s 716 mmHg 76%
    05:00 +13°C° 0 mm 2 m/s 716 mmHg 74%
    06:00 +13°C° 0 mm 2 m/s 715 mmHg 73%
    07:00 +15°C° 0 mm 2 m/s 716 mmHg 65%
    08:00 +17°C° 0 mm 2 m/s 716 mmHg 57%
    09:00 +19°C° 0 mm 2 m/s 716 mmHg 48%
    10:00 +20°C° 0 mm 2 m/s 716 mmHg 46%
    11:00 +21°C° 0 mm 3 m/s 716 mmHg 44%
    12:00 +22°C° 0 mm 3 m/s 716 mmHg 42%
    13:00 +22°C° 0 mm 3 m/s 716 mmHg 45%
    14:00 +22°C° 0 mm 3 m/s 715 mmHg 48%
    15:00 +22°C° 0 mm 3 m/s 715 mmHg 51%
    16:00 +20°C° 0 mm 2 m/s 715 mmHg 62%
    17:00 +18°C° 0 mm 2 m/s 714 mmHg 72%
    18:00 +16°C° 0 mm 1 m/s 714 mmHg 82%
    19:00 +16°C° 0 mm 1 m/s 714 mmHg 80%
    20:00 +16°C° 0 mm 1 m/s 714 mmHg 79%
    21:00 +15°C° 0 mm 2 m/s 714 mmHg 78%
    22:00 +15°C° 0 mm 2 m/s 714 mmHg 76%
    23:00 +15°C° 0 mm 2 m/s 714 mmHg 73%

    18 Octobre, Jeudi

    Heure Température Précipitation Vent Pression Humidité
    00:00 +15°C° 0 mm 2 m/s 713 mmHg 71%
    01:00 +14°C° 0 mm 1 m/s 713 mmHg 69%
    02:00 +14°C° 0 mm 1 m/s 713 mmHg 67%
    03:00 +14°C° 0 mm 1 m/s 713 mmHg 65%
    04:00 +14°C° 0 mm 1 m/s 713 mmHg 63%
    05:00 +13°C° 0 mm 1 m/s 713 mmHg 61%
    06:00 +13°C° 0 mm 1 m/s 713 mmHg 59%
    07:00 +15°C° 0 mm 1 m/s 713 mmHg 54%
    08:00 +18°C° 0 mm 1 m/s 714 mmHg 49%
    09:00 +21°C° 0 mm 1 m/s 714 mmHg 44%
    10:00 +21°C° 0 mm 1 m/s 714 mmHg 44%
    11:00 +21°C° 0 mm 2 m/s 714 mmHg 43%
    12:00 +23°C° 0 mm 2 m/s 714 mmHg 42%
    13:00 +23°C° 0 mm 2 m/s 714 mmHg 46%
    14:00 +23°C° 0 mm 2 m/s 713 mmHg 49%
    15:00 +21°C° 0 mm 2 m/s 713 mmHg 53%
    16:00 +20°C° 0 mm 2 m/s 713 mmHg 64%
    17:00 +18°C° 0 mm 2 m/s 713 mmHg 74%
    18:00 +16°C° 0 mm 1 m/s 713 mmHg 85%
    19:00 +16°C° 0 mm 1 m/s 713 mmHg 84%
    20:00 +15°C° 0 mm 1 m/s 713 mmHg 83%
    21:00 +15°C° 0 mm 1 m/s 714 mmHg 81%
    22:00 +15°C° 0 mm 1 m/s 713 mmHg 78%
    23:00 +15°C° 0 mm 1 m/s 713 mmHg 75%

    19 Octobre, Vendredi

    Heure Température Précipitation Vent Pression Humidité
    00:00 +14°C° 0 mm 1 m/s 713 mmHg 72%
    01:00 +14°C° 0 mm 2 m/s 713 mmHg 70%
    02:00 +14°C° 0 mm 2 m/s 713 mmHg 67%
    03:00 +14°C° 0 mm 2 m/s 713 mmHg 65%
    04:00 +14°C° 0 mm 2 m/s 713 mmHg 63%
    05:00 +13°C° 0 mm 2 m/s 713 mmHg 61%
    06:00 +13°C° 0 mm 2 m/s 713 mmHg 59%
    07:00 +16°C° 0 mm 2 m/s 713 mmHg 52%
    08:00 +19°C° 0 mm 1 m/s 714 mmHg 45%
    09:00 +21°C° 0 mm 1 m/s 714 mmHg 37%
    10:00 +21°C° 0 mm 2 m/s 714 mmHg 36%
    11:00 +23°C° 0 mm 2 m/s 714 mmHg 34%
    12:00 +24°C° 0 mm 3 m/s 714 mmHg 33%
    13:00 +24°C° 0 mm 3 m/s 713 mmHg 37%
    14:00 +24°C° 0 mm 3 m/s 713 mmHg 40%
    15:00 +22°C° 0 mm 3 m/s 713 mmHg 44%
    16:00 +20°C° 0 mm 2 m/s 713 mmHg 54%
    17:00 +18°C° 0 mm 2 m/s 713 mmHg 64%
    18:00 +16°C° 0 mm 2 m/s 713 mmHg 75%
    19:00 +16°C° 0 mm 2 m/s 713 mmHg 72%
    20:00 +16°C° 0 mm 2 m/s 713 mmHg 70%
    21:00 +16°C° 0 mm 2 m/s 713 mmHg 67%
    22:00 +16°C° 0 mm 2 m/s 712 mmHg 66%
    23:00 +15°C° 0 mm 2 m/s 712 mmHg 65%

    20 Octobre, Samedi

    Heure Température Précipitation Vent Pression Humidité
    00:00 +15°C° 0 mm 2 m/s 712 mmHg 63%
    01:00 +15°C° 0 mm 2 m/s 712 mmHg 63%
    02:00 +15°C° 0 mm 2 m/s 711 mmHg 63%
    03:00 +15°C° 0 mm 2 m/s 711 mmHg 62%
    04:00 +14°C° 0 mm 2 m/s 711 mmHg 59%
    05:00 +14°C° 0 mm 2 m/s 711 mmHg 56%
    06:00 +14°C° 0 mm 2 m/s 711 mmHg 53%
    07:00 +17°C° 0 mm 2 m/s 711 mmHg 46%
    08:00 +19°C° 0 mm 2 m/s 711 mmHg 39%
    09:00 +21°C° 0 mm 2 m/s 712 mmHg 32%
    10:00 +23°C° 0 mm 2 m/s 711 mmHg 31%
    11:00 +24°C° 0 mm 2 m/s 711 mmHg 30%
    12:00 +26°C° 0 mm 2 m/s 711 mmHg 28%
    13:00 +25°C° 0 mm 2 m/s 711 mmHg 32%
    14:00 +25°C° 0 mm 2 m/s 711 mmHg 35%
    15:00 +24°C° 0 mm 2 m/s 710 mmHg 38%
    16:00 +23°C° 0 mm 2 m/s 710 mmHg 46%
    17:00 +21°C° 0 mm 1 m/s 710 mmHg 54%
    18:00 +19°C° 0 mm 1 m/s 710 mmHg 62%
    19:00 +19°C° 0 mm 1 m/s 710 mmHg 60%
    20:00 +19°C° 0 mm 1 m/s 710 mmHg 59%
    21:00 +19°C° 0 mm 1 m/s 710 mmHg 57%
    22:00 +18°C° 0 mm 1 m/s 710 mmHg 57%
    23:00 +18°C° 0 mm 1 m/s 710 mmHg 57%
    Voir plus